N11EW LSZB-DTTA

Flight info

Callsign N11EW
Flight time 1h 40m
Altitude 24000
Route MONIN Z119 SOSON/N0454F390 N850 ODINA DCT IRBAK DCT TINTO DCT ABKON DCT ABDAB/N0423F240 L44 TUC
Aircraft B738/M-SCDE2E3FGHIJ4J5J7M1M3P2RWXYZ/LB1D1

Departure

Time 2026-04-28 17:24
Airport Bern Airport (LSZB)

Arrival

Time 2026-04-28 19:05
Airport Tunis Carthage International Airport (DTTA)
Time Latitude Longitude Altitude Speed Heading
2026-04-28 16:57 46.91198 7.50204 1683 ft 0 kts 101°
2026-04-28 17:18 46.91197 7.50205 1683 ft 1 kts 105°
2026-04-28 17:19 46.91188 7.50213 1689 ft 2 kts 169°
2026-04-28 17:19 46.91177 7.50202 1683 ft 2 kts 234°
2026-04-28 17:19 46.91175 7.50172 1684 ft 4 kts 277°
2026-04-28 17:19 46.91201 7.50120 1695 ft 8 kts 311°
2026-04-28 17:20 46.91244 7.50067 1697 ft 7 kts 321°
2026-04-28 17:20 46.91265 7.50042 1692 ft 6 kts 316°
2026-04-28 17:20 46.91259 7.49970 1687 ft 7 kts 231°
2026-04-28 17:20 46.91271 7.49883 1683 ft 12 kts 316°
2026-04-28 17:21 46.91350 7.49788 1679 ft 16 kts 321°
2026-04-28 17:21 46.91442 7.49678 1681 ft 18 kts 321°
2026-04-28 17:21 46.91537 7.49563 1681 ft 17 kts 320°
2026-04-28 17:22 46.91714 7.49347 1683 ft 16 kts 320°
2026-04-28 17:22 46.91799 7.49243 1685 ft 16 kts 320°
2026-04-28 17:22 46.91884 7.49137 1679 ft 14 kts 317°
2026-04-28 17:23 46.91951 7.49049 1682 ft 2 kts 37°
2026-04-28 17:23 46.91945 7.49063 1681 ft 2 kts 139°
2026-04-28 17:23 46.91944 7.49064 1678 ft 0 kts 140°
2026-04-28 17:24 46.91843 7.49189 1679 ft 56 kts 140°
2026-04-28 17:24 46.91335 7.49809 1686 ft 131 kts 140°
2026-04-28 17:24 46.90527 7.50824 1974 ft 165 kts 138°
2026-04-28 17:24 46.89752 7.52045 2860 ft 165 kts 121°
2026-04-28 17:25 46.89150 7.53498 3701 ft 169 kts 122°
2026-04-28 17:25 46.89200 7.56547 5333 ft 171 kts 44°
2026-04-28 17:25 46.90308 7.57385 5928 ft 188 kts 16°
2026-04-28 17:26 46.91580 7.57916 6753 ft 191 kts 16°
2026-04-28 17:26 46.92880 7.58452 7511 ft 197 kts 16°
2026-04-28 17:26 46.94234 7.59010 8152 ft 207 kts 15°
2026-04-28 17:26 46.95609 7.59581 8893 ft 209 kts 16°
2026-04-28 17:27 46.96883 7.60664 9421 ft 224 kts 45°
2026-04-28 17:27 46.98012 7.62343 9912 ft 237 kts 45°
2026-04-28 17:27 46.99203 7.64072 10556 ft 244 kts 44°
2026-04-28 17:27 47.00632 7.65470 11110 ft 256 kts 14°
2026-04-28 17:28 47.02414 7.65413 11672 ft 263 kts 339°
2026-04-28 17:28 47.04821 7.61686 13339 ft 260 kts 281°
2026-04-28 17:28 47.04815 7.59074 14135 ft 260 kts 252°
2026-04-28 17:29 47.03903 7.56777 14772 ft 267 kts 223°
2026-04-28 17:29 47.02895 7.55716 15150 ft 276 kts 208°
2026-04-28 17:29 47.00411 7.54501 15900 ft 293 kts 195°
2026-04-28 17:30 46.96240 7.52898 16880 ft 323 kts 196°
2026-04-28 17:30 46.91627 7.52115 17842 ft 357 kts 169°
2026-04-28 17:30 46.89346 7.53738 18291 ft 379 kts 144°
2026-04-28 17:31 46.88047 7.55584 18578 ft 390 kts 136°
2026-04-28 17:31 46.84753 7.62135 19339 ft 415 kts 124°
2026-04-28 17:32 46.81657 7.69450 20204 ft 428 kts 126°
2026-04-28 17:32 46.80049 7.73098 20963 ft 428 kts 126°
2026-04-28 17:32 46.78406 7.76752 21583 ft 432 kts 126°
2026-04-28 17:32 46.76744 7.80431 22108 ft 438 kts 126°
2026-04-28 17:33 46.75059 7.84160 22632 ft 443 kts 126°
2026-04-28 17:33 46.73354 7.87926 23163 ft 447 kts 126°
2026-04-28 17:33 46.71628 7.91719 23659 ft 451 kts 127°
2026-04-28 17:33 46.70475 7.94246 23940 ft 454 kts 127°
2026-04-28 17:34 46.68317 7.99592 24460 ft 464 kts 113°
2026-04-28 17:34 46.67567 8.04186 24916 ft 469 kts 101°
2026-04-28 17:34 46.67052 8.08821 25364 ft 472 kts 101°
2026-04-28 17:34 46.66515 8.13541 25830 ft 472 kts 101°
2026-04-28 17:35 46.65955 8.18250 26301 ft 473 kts 102°
2026-04-28 17:35 46.65373 8.22975 26668 ft 475 kts 102°
2026-04-28 17:35 46.64772 8.27715 26933 ft 479 kts 102°
2026-04-28 17:35 46.64158 8.32509 27218 ft 483 kts 102°
2026-04-28 17:36 46.63543 8.37325 27646 ft 486 kts 102°
2026-04-28 17:36 46.62922 8.42180 28041 ft 489 kts 102°
2026-04-28 17:36 46.62284 8.47051 28414 ft 492 kts 104°
2026-04-28 17:36 46.61072 8.51683 28690 ft 490 kts 124°
2026-04-28 17:37 46.58993 8.55469 29050 ft 485 kts 141°
2026-04-28 17:37 46.56305 8.58362 29415 ft 479 kts 155°
2026-04-28 17:37 46.53287 8.60297 29776 ft 472 kts 169°
2026-04-28 17:37 46.50086 8.61085 30107 ft 465 kts 181°
2026-04-28 17:38 46.46865 8.61418 30403 ft 466 kts 181°
2026-04-28 17:38 46.43628 8.61796 30703 ft 466 kts 180°
2026-04-28 17:38 46.40400 8.62228 31111 ft 465 kts 180°
2026-04-28 17:38 46.37181 8.62687 31517 ft 464 kts 180°
2026-04-28 17:39 46.33979 8.63152 31983 ft 462 kts 180°
2026-04-28 17:39 46.30781 8.63615 32408 ft 462 kts 180°
2026-04-28 17:39 46.24459 8.64519 33473 ft 456 kts 181°
2026-04-28 17:40 46.21301 8.64967 33760 ft 457 kts 180°
2026-04-28 17:40 46.18132 8.65402 33978 ft 458 kts 181°
2026-04-28 17:40 46.14949 8.65854 34253 ft 460 kts 180°
2026-04-28 17:40 46.11776 8.66374 34605 ft 461 kts 176°
2026-04-28 17:41 46.08633 8.67435 35017 ft 468 kts 167°
2026-04-28 17:41 46.05587 8.69132 35379 ft 469 kts 163°
2026-04-28 17:41 46.02620 8.70928 35674 ft 468 kts 162°
2026-04-28 17:41 45.99623 8.72772 35873 ft 471 kts 162°
2026-04-28 17:42 45.96607 8.74623 36074 ft 472 kts 162°
2026-04-28 17:42 45.93582 8.76462 36328 ft 471 kts 162°
2026-04-28 17:42 45.90559 8.78280 36652 ft 470 kts 162°
2026-04-28 17:42 45.87539 8.80081 36964 ft 470 kts 162°
2026-04-28 17:43 45.84518 8.81871 37260 ft 470 kts 162°
2026-04-28 17:43 45.81492 8.83658 37541 ft 470 kts 162°
2026-04-28 17:43 45.78473 8.85437 37820 ft 470 kts 162°
2026-04-28 17:43 45.75495 8.87188 38065 ft 470 kts 162°
2026-04-28 17:44 45.72469 8.88967 38365 ft 469 kts 161°
2026-04-28 17:44 45.69449 8.90742 38643 ft 469 kts 161°
2026-04-28 17:44 45.66430 8.92513 38857 ft 469 kts 161°
2026-04-28 17:44 45.63408 8.94285 39012 ft 470 kts 161°
2026-04-28 17:45 45.60370 8.96063 39006 ft 474 kts 161°
2026-04-28 17:45 45.54257 8.99636 39020 ft 474 kts 161°
2026-04-28 17:46 45.48180 9.03184 38996 ft 470 kts 161°
2026-04-28 17:46 45.42175 9.06680 39000 ft 468 kts 161°
2026-04-28 17:47 45.36150 9.10178 38994 ft 467 kts 161°
2026-04-28 17:47 45.30142 9.13657 39005 ft 466 kts 161°
2026-04-28 17:48 45.24125 9.17134 39010 ft 467 kts 161°
2026-04-28 17:48 45.18088 9.20614 39009 ft 469 kts 161°
2026-04-28 17:49 45.12081 9.24070 39023 ft 470 kts 161°
2026-04-28 17:49 45.05999 9.27560 39018 ft 472 kts 161°
2026-04-28 17:50 44.99894 9.31056 39006 ft 474 kts 161°
2026-04-28 17:50 44.93776 9.34552 39010 ft 475 kts 161°
2026-04-28 17:51 44.87683 9.38025 39016 ft 475 kts 161°
2026-04-28 17:51 44.81546 9.41516 39002 ft 476 kts 161°
2026-04-28 17:52 44.75408 9.44999 39008 ft 475 kts 161°
2026-04-28 17:52 44.66217 9.50200 39012 ft 474 kts 161°
2026-04-28 17:53 44.60143 9.53627 39027 ft 473 kts 161°
2026-04-28 17:53 44.53994 9.57088 39022 ft 473 kts 161°
2026-04-28 17:54 44.47930 9.60493 39024 ft 473 kts 161°
2026-04-28 17:54 44.41830 9.63911 39028 ft 472 kts 161°
2026-04-28 17:55 44.35725 9.67325 39044 ft 473 kts 161°
2026-04-28 17:55 44.29623 9.70728 39037 ft 472 kts 161°
2026-04-28 17:56 44.23512 9.74130 39023 ft 473 kts 161°
2026-04-28 17:56 44.17436 9.77505 39018 ft 472 kts 162°
2026-04-28 17:57 44.11333 9.80886 39023 ft 473 kts 162°
2026-04-28 17:57 44.05218 9.84267 39026 ft 473 kts 161°
2026-04-28 17:58 43.99097 9.87644 39012 ft 473 kts 161°
2026-04-28 17:58 43.92973 9.91015 39025 ft 474 kts 161°
2026-04-28 17:59 43.86847 9.94380 39035 ft 474 kts 162°
2026-04-28 17:59 43.80709 9.97743 39038 ft 474 kts 162°
2026-04-28 18:00 43.74614 10.01077 39033 ft 474 kts 162°
2026-04-28 18:00 43.68475 10.04427 39040 ft 474 kts 162°
2026-04-28 18:01 43.62335 10.07770 39042 ft 474 kts 162°
2026-04-28 18:01 43.56152 10.10888 39034 ft 472 kts 165°
2026-04-28 18:02 43.49931 10.13784 39026 ft 472 kts 165°
2026-04-28 18:02 43.43759 10.16661 39039 ft 471 kts 165°
2026-04-28 18:03 43.37559 10.19587 39038 ft 471 kts 165°
2026-04-28 18:03 43.31372 10.22520 39032 ft 470 kts 164°
2026-04-28 18:04 43.25193 10.25446 39039 ft 470 kts 164°
2026-04-28 18:04 43.19016 10.28363 39035 ft 470 kts 164°
2026-04-28 18:05 43.13880 10.30783 39025 ft 469 kts 164°
2026-04-28 18:05 43.06702 10.34158 39037 ft 469 kts 164°
2026-04-28 18:06 43.00528 10.37053 39041 ft 469 kts 165°
2026-04-28 18:06 42.94355 10.39942 39036 ft 469 kts 164°
2026-04-28 18:07 42.88180 10.42826 39039 ft 469 kts 164°
2026-04-28 18:07 42.82002 10.45706 39043 ft 469 kts 165°
2026-04-28 18:08 42.75868 10.48558 39044 ft 469 kts 165°
2026-04-28 18:08 42.69688 10.51427 39047 ft 469 kts 165°
2026-04-28 18:09 42.63513 10.54287 39045 ft 469 kts 165°
2026-04-28 18:09 42.57343 10.57138 39045 ft 468 kts 165°
2026-04-28 18:10 42.51178 10.59981 39034 ft 468 kts 165°
2026-04-28 18:10 42.45010 10.62820 39048 ft 468 kts 165°
2026-04-28 18:11 42.38848 10.65650 39046 ft 468 kts 165°
2026-04-28 18:11 42.32725 10.68456 39046 ft 468 kts 165°
2026-04-28 18:12 42.26562 10.71274 39047 ft 468 kts 165°
2026-04-28 18:12 42.20399 10.74088 39046 ft 468 kts 165°
2026-04-28 18:13 42.14234 10.76896 39049 ft 468 kts 165°
2026-04-28 18:13 42.08105 10.79682 39041 ft 468 kts 165°
2026-04-28 18:14 42.01930 10.82403 39044 ft 465 kts 171°
2026-04-28 18:14 41.95575 10.83237 39054 ft 457 kts 184°
2026-04-28 18:15 41.89237 10.82976 39039 ft 456 kts 186°
2026-04-28 18:15 41.82901 10.82662 39048 ft 456 kts 186°
2026-04-28 18:16 41.76555 10.82467 39049 ft 456 kts 185°
2026-04-28 18:16 41.70251 10.82325 39049 ft 456 kts 185°
2026-04-28 18:17 41.63912 10.82186 39041 ft 455 kts 185°
2026-04-28 18:17 41.57576 10.82043 39047 ft 455 kts 185°
2026-04-28 18:18 41.51250 10.81898 39046 ft 455 kts 185°
2026-04-28 18:18 41.45993 10.81786 39038 ft 455 kts 185°
2026-04-28 18:19 41.38604 10.81730 39043 ft 454 kts 184°
2026-04-28 18:19 41.32327 10.81702 39046 ft 454 kts 184°
2026-04-28 18:20 41.26011 10.81665 39028 ft 454 kts 185°
2026-04-28 18:20 41.19706 10.81622 39041 ft 453 kts 185°
2026-04-28 18:21 41.13406 10.81577 39047 ft 453 kts 185°
2026-04-28 18:21 41.07102 10.81532 39050 ft 453 kts 185°
2026-04-28 18:22 41.00850 10.81488 39036 ft 452 kts 185°
2026-04-28 18:22 40.94557 10.81443 39046 ft 452 kts 185°
2026-04-28 18:23 40.88262 10.81399 39047 ft 452 kts 185°
2026-04-28 18:23 40.81968 10.81355 39043 ft 453 kts 185°
2026-04-28 18:24 40.76728 10.81318 39045 ft 453 kts 185°
2026-04-28 18:24 40.69401 10.81267 39046 ft 453 kts 185°
2026-04-28 18:25 40.63094 10.81223 39047 ft 454 kts 185°
2026-04-28 18:26 40.53623 10.81157 39049 ft 453 kts 185°
2026-04-28 18:26 40.47355 10.81114 39045 ft 453 kts 185°
2026-04-28 18:27 40.41047 10.81070 39047 ft 453 kts 185°
2026-04-28 18:27 40.34750 10.81026 39047 ft 452 kts 184°
2026-04-28 18:28 40.28469 10.80983 39046 ft 451 kts 184°
2026-04-28 18:28 40.22203 10.80940 39045 ft 450 kts 184°
2026-04-28 18:29 40.15951 10.80897 39043 ft 449 kts 184°
2026-04-28 18:29 40.09747 10.80854 39047 ft 448 kts 184°
2026-04-28 18:30 40.03510 10.80811 39048 ft 448 kts 184°
2026-04-28 18:30 39.97278 10.80769 39049 ft 448 kts 184°
2026-04-28 18:31 39.91052 10.80725 39048 ft 447 kts 184°
2026-04-28 18:31 39.84839 10.80582 39042 ft 445 kts 187°
2026-04-28 18:32 39.78708 10.80031 39044 ft 444 kts 188°
2026-04-28 18:32 39.72547 10.79395 39037 ft 444 kts 188°
2026-04-28 18:33 39.66392 10.78792 39041 ft 444 kts 188°
2026-04-28 18:33 39.60232 10.78218 39040 ft 443 kts 188°
2026-04-28 18:34 39.54079 10.77655 39043 ft 443 kts 188°
2026-04-28 18:34 39.47969 10.77099 39040 ft 443 kts 188°
2026-04-28 18:35 39.41832 10.76540 39037 ft 442 kts 188°
2026-04-28 18:35 39.35693 10.75981 39037 ft 442 kts 188°
2026-04-28 18:36 39.29557 10.75423 39027 ft 442 kts 188°
2026-04-28 18:36 39.23428 10.74867 38973 ft 443 kts 188°
2026-04-28 18:36 39.20350 10.74587 38720 ft 443 kts 188°
2026-04-28 18:37 39.17284 10.74311 38447 ft 440 kts 188°
2026-04-28 18:37 39.14229 10.74035 38170 ft 440 kts 188°
2026-04-28 18:37 39.11167 10.73758 37901 ft 442 kts 188°
2026-04-28 18:37 39.08092 10.73479 37619 ft 444 kts 188°
2026-04-28 18:38 39.05008 10.73200 37358 ft 445 kts 188°
2026-04-28 18:38 39.01920 10.72922 37095 ft 446 kts 188°
2026-04-28 18:38 38.98818 10.72642 36832 ft 446 kts 188°
2026-04-28 18:38 38.95761 10.72367 36581 ft 447 kts 187°
2026-04-28 18:39 38.92659 10.72089 36326 ft 447 kts 187°
2026-04-28 18:39 38.89548 10.71810 36067 ft 448 kts 187°
2026-04-28 18:39 38.86440 10.71531 35819 ft 448 kts 187°
2026-04-28 18:39 38.83324 10.71252 35565 ft 448 kts 187°
2026-04-28 18:40 38.80220 10.70974 34892 ft 449 kts 187°
2026-04-28 18:40 38.77103 10.70695 34165 ft 449 kts 187°
2026-04-28 18:40 38.73978 10.70415 33330 ft 451 kts 187°
2026-04-28 18:40 38.70865 10.70138 32769 ft 445 kts 187°
2026-04-28 18:41 38.67791 10.69865 32198 ft 441 kts 186°
2026-04-28 18:41 38.64748 10.69595 31651 ft 436 kts 186°
2026-04-28 18:41 38.61739 10.69327 31103 ft 432 kts 187°
2026-04-28 18:41 38.58783 10.69064 30591 ft 431 kts 187°
2026-04-28 18:42 38.55804 10.68799 30059 ft 427 kts 186°
2026-04-28 18:42 38.52849 10.68536 29435 ft 423 kts 186°
2026-04-28 18:42 38.49931 10.68277 28880 ft 418 kts 186°
2026-04-28 18:42 38.47048 10.68022 28331 ft 413 kts 186°
2026-04-28 18:43 38.44190 10.67768 27781 ft 409 kts 186°
2026-04-28 18:43 38.41367 10.67518 27243 ft 405 kts 186°
2026-04-28 18:43 38.38570 10.67262 26718 ft 401 kts 188°
2026-04-28 18:43 38.35834 10.66890 26482 ft 392 kts 189°
2026-04-28 18:44 38.33086 10.66435 26250 ft 404 kts 190°
2026-04-28 18:44 38.27496 10.65462 25760 ft 407 kts 190°
2026-04-28 18:44 38.24701 10.64987 25510 ft 404 kts 190°
2026-04-28 18:45 38.21921 10.64523 25266 ft 402 kts 190°
2026-04-28 18:45 38.19156 10.64067 25028 ft 400 kts 190°
2026-04-28 18:45 38.16400 10.63618 24787 ft 399 kts 190°
2026-04-28 18:45 38.13650 10.63172 24553 ft 398 kts 190°
2026-04-28 18:46 38.10914 10.62730 24146 ft 395 kts 190°
2026-04-28 18:46 38.08197 10.62292 23666 ft 391 kts 190°
2026-04-28 18:46 38.05504 10.61858 23070 ft 388 kts 190°
2026-04-28 18:46 38.02842 10.61429 22539 ft 385 kts 190°
2026-04-28 18:47 38.00195 10.61003 22006 ft 381 kts 190°
2026-04-28 18:47 37.97610 10.60587 21492 ft 378 kts 190°
2026-04-28 18:47 37.95012 10.60169 20989 ft 375 kts 190°
2026-04-28 18:47 37.92436 10.59755 20491 ft 372 kts 190°
2026-04-28 18:48 37.89878 10.59344 19992 ft 369 kts 190°
2026-04-28 18:48 37.87335 10.58936 19498 ft 367 kts 190°
2026-04-28 18:48 37.84809 10.58530 19014 ft 365 kts 190°
2026-04-28 18:48 37.82295 10.58127 18512 ft 364 kts 191°
2026-04-28 18:49 37.79788 10.57724 17970 ft 363 kts 190°
2026-04-28 18:49 37.78979 10.57595 17794 ft 362 kts 190°
2026-04-28 18:49 37.74850 10.56933 16945 ft 357 kts 190°
2026-04-28 18:49 37.72393 10.56541 16456 ft 354 kts 190°
2026-04-28 18:50 37.69959 10.56152 15967 ft 351 kts 190°
2026-04-28 18:50 37.67543 10.55766 15497 ft 349 kts 190°
2026-04-28 18:50 37.65142 10.55383 15029 ft 346 kts 190°
2026-04-28 18:50 37.62763 10.55004 14564 ft 344 kts 190°
2026-04-28 18:51 37.60398 10.54627 14107 ft 342 kts 190°
2026-04-28 18:51 37.58043 10.54252 13621 ft 340 kts 189°
2026-04-28 18:51 37.55702 10.53882 13112 ft 338 kts 189°
2026-04-28 18:51 37.53378 10.53517 12627 ft 335 kts 190°
2026-04-28 18:52 37.51074 10.53152 12155 ft 332 kts 189°
2026-04-28 18:52 37.48790 10.52789 11701 ft 330 kts 190°
2026-04-28 18:52 37.46524 10.52426 11241 ft 327 kts 190°
2026-04-28 18:52 37.44267 10.52065 11051 ft 328 kts 190°
2026-04-28 18:53 37.42022 10.51707 11000 ft 321 kts 189°
2026-04-28 18:53 37.39891 10.51370 10984 ft 305 kts 190°
2026-04-28 18:53 37.37834 10.51047 10976 ft 290 kts 190°
2026-04-28 18:53 37.35863 10.50736 10687 ft 286 kts 190°
2026-04-28 18:54 37.33871 10.50419 10244 ft 289 kts 191°
2026-04-28 18:54 37.31880 10.50102 9892 ft 289 kts 190°
2026-04-28 18:54 37.29892 10.49786 9536 ft 287 kts 190°
2026-04-28 18:54 37.27937 10.49478 9145 ft 280 kts 191°
2026-04-28 18:55 37.26006 10.49172 8592 ft 280 kts 189°
2026-04-28 18:55 37.24730 10.48970 8269 ft 278 kts 189°
2026-04-28 18:55 37.22185 10.48570 7743 ft 278 kts 189°
2026-04-28 18:55 37.20271 10.48269 7399 ft 276 kts 189°
2026-04-28 18:56 37.18369 10.47968 7066 ft 275 kts 189°
2026-04-28 18:56 37.16483 10.47671 6746 ft 272 kts 189°
2026-04-28 18:56 37.14610 10.47374 6424 ft 270 kts 188°
2026-04-28 18:56 37.12752 10.47081 6088 ft 268 kts 188°
2026-04-28 18:57 37.10907 10.46792 5773 ft 266 kts 188°
2026-04-28 18:57 37.09077 10.46505 5441 ft 265 kts 188°
2026-04-28 18:57 37.07280 10.46223 5130 ft 262 kts 187°
2026-04-28 18:57 37.05477 10.45939 4823 ft 260 kts 187°
2026-04-28 18:58 37.03714 10.45545 4538 ft 256 kts 201°
2026-04-28 18:58 37.02262 10.44360 4433 ft 248 kts 226°
2026-04-28 18:58 37.01582 10.42434 4312 ft 245 kts 262°
2026-04-28 18:58 37.01870 10.40373 4204 ft 242 kts 295°
2026-04-28 18:59 37.02812 10.38640 4124 ft 240 kts 303°
2026-04-28 18:59 37.03762 10.36924 4028 ft 241 kts 299°
2026-04-28 18:59 37.04605 10.35093 3930 ft 244 kts 293°
2026-04-28 18:59 37.05314 10.33154 3834 ft 244 kts 288°
2026-04-28 19:00 37.05653 10.31138 3664 ft 233 kts 262°
2026-04-28 19:00 37.05185 10.29297 3429 ft 223 kts 233°
2026-04-28 19:00 37.04065 10.28038 3216 ft 215 kts 205°
2026-04-28 19:00 37.02679 10.27465 3099 ft 206 kts 192°
2026-04-28 19:01 37.01276 10.27097 2864 ft 206 kts 191°
2026-04-28 19:01 36.99893 10.26736 2605 ft 198 kts 191°
2026-04-28 19:01 36.98595 10.26385 2352 ft 184 kts 191°
2026-04-28 19:01 36.97388 10.26055 2111 ft 171 kts 190°
2026-04-28 19:02 36.96268 10.25748 1891 ft 159 kts 189°
2026-04-28 19:02 36.95237 10.25466 1697 ft 145 kts 188°
2026-04-28 19:02 36.94308 10.25211 1530 ft 130 kts 187°
2026-04-28 19:02 36.93432 10.24974 1360 ft 128 kts 187°
2026-04-28 19:03 36.92559 10.24736 1180 ft 128 kts 187°
2026-04-28 19:03 36.91686 10.24499 1015 ft 127 kts 188°
2026-04-28 19:03 36.90832 10.24259 844 ft 129 kts 188°
2026-04-28 19:03 36.89940 10.24027 698 ft 133 kts 188°
2026-04-28 19:04 36.89021 10.23771 522 ft 137 kts 189°
2026-04-28 19:04 36.88100 10.23521 333 ft 133 kts 188°
2026-04-28 19:04 36.87198 10.23264 165 ft 134 kts 185°
2026-04-28 19:04 36.86280 10.23017 39 ft 131 kts 187°
2026-04-28 19:05 36.85492 10.22806 31 ft 96 kts 193°
2026-04-28 19:05 36.84938 10.22654 32 ft 70 kts 192°
2026-04-28 19:05 36.84549 10.22549 27 ft 39 kts 192°
2026-04-28 19:05 36.84410 10.22511 29 ft 28 kts 192°
2026-04-28 19:06 36.84227 10.22470 30 ft 14 kts 168°
2026-04-28 19:06 36.84182 10.22525 29 ft 14 kts 114°
2026-04-28 19:06 36.84160 10.22637 29 ft 11 kts 101°
2026-04-28 19:06 36.84145 10.22729 29 ft 11 kts 102°
2026-04-28 19:07 36.84129 10.22818 29 ft 10 kts 103°
2026-04-28 19:07 36.84110 10.22932 29 ft 10 kts 102°
2026-04-28 19:07 36.84085 10.22982 29 ft 7 kts 155°
2026-04-28 19:07 36.84041 10.22974 28 ft 7 kts 218°
2026-04-28 19:08 36.84036 10.22938 29 ft 7 kts 278°
2026-04-28 19:08 36.84045 10.22879 29 ft 6 kts 282°
2026-04-28 19:08 36.84046 10.22875 29 ft 0 kts 282°